Location: ???????
(60.4260°N, 46.9069°E)
Time: 07:57:44
(UTC+00:00)

Cosmos 1689 Rocket - Pass Details

Date: 30 March 2020
Orbit: 368 x 383 km, 97.5° (Epoch: 25 May)

Event Time Altitude Azimuth Distance (km) Brightness Sun altitude
Rises 00:16:14 0° 151° (SSE) 2,274 5.9 -15.0°
Reaches altitude 10° 00:18:13 10° 147° (SSE) 1,423 4.9 -14.8°
Maximum altitude 00:21:11 55° 69° (ENE) 478 2.9 -14.5°
Drops below altitude 10° 00:24:11 10° 350° (N) 1,431 5.3 -14.2°
Sets 00:26:10 0° 346° (NNW) 2,289 6.3 -14.0°
